GFSSE_sfc_thetae_108.txt.gz
Theta_e
342 347 350 352 353 353 353 354 353 352 353 354 354 354 354 354 355 355 356 356 355 356 355 354 354 353 351 350 350 351 351 350 350 350 351 352 350 348 349 348 347 345 348
344 346 349 351 352 352 353 353 354 353 354 354 354 354 353 354 355 355 355 355 356 356 354 353 354 354 350 350 351 350 349 348 348 348 350 351 349 348 347 348 347 346 347
346 347 348 349 351 352 353 353 354 354 354 354 353 354 354 354 354 355 354 354 354 353 353 352 352 352 350 350 349 349 348 347 347 346 346 342 343 348 348 347 346 346 346
346 346 348 348 350 351 352 353 354 355 354 354 353 354 353 354 353 353 353 352 351 352 351 350 351 350 350 348 347 347 346 345 345 345 342 343 343 347 346 346 346 346 346
345 346 348 347 348 351 352 353 353 353 353 353 352 353 354 353 352 353 351 351 350 352 352 349 350 349 347 345 345 345 345 344 343 343 340 341 341 345 346 345 345 344 343
343 348 343 345 347 350 351 353 353 352 351 351 352 352 353 352 351 351 349 349 350 351 352 351 351 348 344 343 343 343 342 342 341 338 339 341 340 344 344 344 342 342 340
348 349 345 343 346 349 351 352 352 351 350 350 351 351 352 351 351 349 348 348 348 349 350 350 348 345 343 342 342 341 341 340 340 336 338 338 339 343 343 341 341 340 339
352 352 346 345 346 347 348 349 349 348 348 348 348 349 351 349 348 347 347 347 346 346 346 346 345 344 342 341 341 339 339 338 338 335 337 337 341 342 341 340 339 338 337
353 353 349 347 346 345 344 344 345 345 346 346 346 347 347 344 345 346 345 345 345 344 344 344 343 341 339 339 337 335 335 333 333 336 340 337 342 341 341 338 337 336 336
353 354 349 349 347 346 346 342 342 343 343 344 345 344 341 342 342 342 342 342 342 342 342 341 339 338 337 335 334 332 331 331 332 334 336 336 341 341 340 338 336 335 335
349 351 352 349 347 348 346 344 342 343 342 342 344 340 338 344 341 341 339 339 339 338 340 340 338 336 334 334 333 332 331 331 330 330 333 337 340 340 339 337 335 333 333
344 347 349 349 348 348 344 346 345 345 344 344 345 344 345 344 343 341 339 338 338 338 339 338 335 334 333 333 332 332 331 332 330 330 332 336 339 339 338 335 334 332 332
342 344 345 349 349 348 343 347 345 344 344 344 344 345 344 342 342 340 340 336 337 338 337 334 332 332 330 331 331 331 331 332 330 330 332 335 337 337 337 334 333 332 331
337 340 343 346 349 347 345 347 346 344 345 345 345 344 342 340 339 339 338 338 336 336 334 332 331 331 329 329 328 330 331 331 328 329 331 332 334 336 335 334 333 332 331
334 338 341 345 346 348 348 345 344 344 344 344 344 344 342 340 338 338 337 338 336 337 334 332 331 329 328 328 329 330 329 330 329 328 330 330 331 334 334 333 333 332 332
330 336 341 343 346 347 344 346 343 343 343 342 341 341 342 341 338 337 336 335 335 336 335 333 331 329 327 328 327 329 330 330 328 329 328 328 329 331 332 332 332 332 332
325 334 341 342 347 345 344 345 342 341 340 338 339 339 340 341 338 336 335 334 334 335 334 332 331 330 327 328 326 327 329 328 329 328 327 328 327 327 329 331 332 332 331
322 325 342 342 344 345 343 343 341 342 339 337 338 339 337 339 339 336 335 333 333 333 331 331 330 328 327 326 324 326 328 327 328 326 326 327 326 326 326 329 330 331 331
319 325 341 342 343 343 344 342 342 342 339 338 336 336 336 337 337 336 334 333 333 332 331 330 329 328 325 325 326 326 327 325 326 326 325 325 325 325 325 326 327 327 328
318 323 339 342 342 342 342 341 340 339 337 337 335 336 336 335 336 336 334 333 332 331 329 328 326 327 325 325 327 326 325 323 323 324 325 326 325 324 323 324 324 324 324
318 322 332 340 342 341 339 337 337 335 335 334 334 335 334 335 336 335 333 331 330 328 328 325 325 324 323 325 323 321 320 322 321 323 324 324 323 323 324 325 323 322 323
318 323 329 338 341 340 339 338 337 336 334 333 332 332 334 335 335 334 331 328 325 323 323 323 323 321 321 324 319 317 311 314 319 320 319 321 322 321 323 324 323 322 321
321 324 324 330 340 339 338 336 335 334 331 329 331 330 332 333 332 333 330 326 323 322 320 321 321 320 317 322 321 316 310 309 313 318 318 318 320 320 319 321 323 322 321
322 326 323 326 334 338 337 333 332 330 326 327 329 329 330 331 331 332 330 326 322 321 320 320 321 320 320 317 319 321 319 316 310 309 317 317 319 320 318 320 321 321 321
319 321 326 324 329 335 336 333 332 332 330 328 330 328 328 331 330 332 330 326 322 321 320 320 320 320 321 319 317 316 316 316 315 312 309 313 317 318 319 320 319 321 320
321 321 322 325 326 331 336 334 333 332 330 328 328 326 327 327 329 330 329 326 323 321 320 320 321 321 320 320 319 318 316 312 312 311 311 313 312 315 317 318 317 320 320

GFSSE_sfc_thetae_111.txt.gz
Theta_e
343 347 349 351 352 353 353 351 351 352 353 354 354 354 354 354 354 354 354 355 355 356 355 353 354 354 352 352 352 352 351 350 348 349 351 352 350 350 350 349 348 346 349
344 348 348 350 352 352 353 352 351 352 353 354 353 353 353 353 354 354 354 355 355 356 354 353 353 351 351 350 350 350 350 348 347 348 349 351 351 349 348 348 347 346 348
343 347 348 349 350 352 352 353 353 354 354 354 353 353 353 354 354 354 353 354 355 356 353 352 352 351 350 349 349 349 348 347 346 346 346 342 344 349 348 348 347 347 346
343 346 347 348 349 351 351 352 353 354 354 354 353 353 354 354 354 353 353 352 352 354 354 352 352 351 349 348 347 347 347 346 345 344 342 342 344 347 347 346 346 346 345
341 345 347 346 348 350 351 351 352 352 352 352 352 354 354 354 353 353 351 350 351 353 353 351 351 350 348 346 345 345 345 344 343 342 338 340 341 345 346 345 345 345 344
341 345 343 344 346 349 351 352 352 350 349 350 351 353 354 353 353 351 349 349 351 352 352 352 350 348 345 343 343 343 342 342 337 337 337 341 340 345 345 343 343 343 342
342 342 343 342 345 348 351 352 351 349 349 349 350 351 352 352 352 349 348 348 349 350 351 351 349 345 343 342 343 341 338 338 337 334 336 339 340 345 344 342 341 341 340
340 342 343 344 345 346 349 349 348 347 347 348 349 349 350 349 348 348 347 347 346 347 347 347 345 343 342 342 339 338 336 335 336 335 336 338 342 343 343 341 340 339 338
343 340 341 342 344 343 344 344 344 345 345 345 346 347 347 345 344 345 346 346 345 345 345 344 343 341 341 340 338 335 333 333 331 334 337 336 342 342 342 340 338 337 337
343 341 340 340 340 339 339 341 342 343 342 342 343 343 342 342 343 343 343 344 344 343 343 343 340 339 339 337 335 333 332 332 329 332 336 338 342 342 341 338 337 336 334
344 341 341 340 340 339 338 341 341 342 342 341 342 341 337 340 340 341 339 340 340 341 341 340 339 336 335 334 334 333 332 331 330 333 333 337 342 341 339 338 337 335 333
340 342 342 340 340 339 342 338 337 339 338 338 340 338 338 338 337 339 337 337 338 337 338 338 336 334 332 330 331 332 331 331 330 331 332 336 340 341 339 336 336 335 334
341 343 343 342 342 341 340 338 338 338 337 337 338 337 337 339 338 336 334 335 333 335 335 335 333 329 328 328 330 331 331 332 330 331 333 334 338 340 338 336 334 333 332
340 341 343 343 342 341 339 339 339 339 338 338 337 337 338 334 334 334 333 331 332 333 331 330 328 327 326 327 329 330 330 331 330 330 332 332 335 339 337 336 334 333 331
337 340 341 342 342 340 338 342 339 338 339 339 338 337 336 334 332 332 332 332 331 331 331 328 327 326 324 325 326 327 328 329 329 329 331 330 332 336 336 335 334 333 332
336 337 339 341 342 341 339 341 339 337 340 337 337 338 336 334 332 331 330 331 330 331 330 329 328 325 323 324 325 328 329 330 329 328 329 329 329 332 334 334 333 333 332
324 336 337 339 343 341 340 340 338 337 337 334 334 335 337 335 333 331 330 329 330 331 328 328 326 324 324 325 326 327 328 329 329 328 328 328 328 327 329 332 333 333 332
312 332 337 340 340 341 339 338 338 336 333 332 332 332 337 338 334 330 330 329 329 329 330 328 327 326 324 325 325 325 326 329 329 328 327 327 326 326 327 329 331 332 332
309 318 335 338 339 339 338 338 336 334 333 332 332 332 333 337 334 332 330 330 332 328 326 326 326 327 324 325 325 324 325 327 327 328 325 325 323 323 324 326 327 327 329
308 314 335 337 340 339 338 337 335 333 333 333 332 332 332 334 333 331 330 328 329 328 328 326 326 325 326 325 325 324 324 326 326 325 324 325 323 322 322 324 325 325 325
307 313 335 335 337 338 337 335 334 331 331 332 331 332 332 331 332 330 329 328 328 327 328 328 326 325 323 324 323 322 323 323 323 324 324 323 322 322 322 323 323 323 324
309 310 335 336 337 337 337 336 333 329 327 327 328 330 332 331 331 330 328 326 328 326 325 325 324 322 323 325 320 319 312 315 319 322 323 322 321 321 321 322 322 321 322
309 309 333 336 338 337 336 332 330 329 328 325 324 324 328 330 330 331 327 325 325 324 323 324 323 321 319 323 323 316 309 308 314 317 318 320 318 318 321 322 322 321 320
310 314 319 337 337 336 335 333 331 328 326 326 324 324 326 327 328 328 325 323 321 320 320 321 323 322 321 319 320 320 318 316 310 309 316 316 319 318 319 319 320 320 320
317 317 319 318 336 336 335 333 330 327 326 324 324 323 325 326 326 328 324 321 320 319 320 320 320 321 321 319 318 316 315 316 315 312 309 312 316 317 318 318 320 321 321
310 312 315 318 319 334 333 331 330 328 326 324 324 324 324 326 326 327 325 322 321 319 319 319 320 320 320 320 318 317 316 313 311 311 310 312 312 314 316 317 317 319 320

GFSSE_sfc_thetae_114.txt.gz
Theta_e
341 346 350 352 352 351 351 351 351 351 352 353 353 353 354 354 354 355 355 355 355 356 354 353 354 354 352 352 353 352 351 349 349 351 352 351 351 350 349 350 348 346 350
343 346 348 351 352 352 351 351 351 351 353 353 353 353 353 353 353 354 354 355 355 355 353 353 353 352 351 351 351 350 349 348 348 348 349 350 350 349 348 348 347 347 349
343 346 348 348 351 352 352 351 352 353 353 353 353 352 353 353 353 353 354 354 355 355 353 352 352 351 350 350 349 349 348 347 347 347 348 343 345 347 348 347 347 347 346
344 346 346 348 349 351 351 351 352 353 353 353 353 353 353 353 353 353 353 352 354 354 352 352 352 350 349 348 347 347 347 345 344 345 342 342 344 346 347 346 347 346 346
343 345 346 346 347 349 350 351 351 352 351 352 352 353 353 353 353 353 351 349 352 354 353 352 351 349 347 345 345 345 345 343 343 341 337 340 341 345 347 346 345 345 344
341 343 343 344 346 349 350 351 351 351 349 349 351 353 353 353 353 351 349 349 351 353 353 352 350 347 344 343 343 343 342 340 338 336 337 342 340 346 346 344 343 343 342
340 342 343 342 345 348 351 351 350 347 348 349 350 351 351 352 352 349 348 348 349 351 351 351 348 345 343 342 342 341 338 338 337 333 335 336 340 345 345 343 343 342 342
339 341 341 344 345 347 348 348 346 345 346 347 348 349 350 350 349 348 347 347 347 348 348 347 345 343 342 342 341 336 336 337 337 334 336 337 341 343 344 341 341 340 340
339 339 339 341 344 344 343 343 343 344 345 346 346 347 346 345 345 346 346 346 346 346 346 345 343 341 341 341 338 335 333 334 333 333 336 337 342 342 342 340 339 338 337
337 338 338 338 340 341 343 341 341 342 342 342 344 344 342 342 343 343 343 344 344 345 344 343 341 340 340 337 334 333 333 332 332 332 335 336 342 343 342 340 338 337 336
336 336 337 337 336 335 338 342 342 343 341 340 340 340 338 340 340 341 340 341 342 341 341 341 340 338 336 334 333 332 333 331 332 333 332 337 340 342 341 338 336 335 334
335 335 337 336 336 335 339 339 338 342 340 339 339 338 338 337 337 340 338 338 339 339 339 339 338 336 333 329 329 331 329 331 332 332 331 336 339 341 340 337 336 335 333
338 338 338 337 336 336 336 335 336 338 337 337 337 336 335 336 335 334 333 335 333 337 335 335 334 329 327 326 327 328 328 331 330 332 333 334 338 340 339 336 334 334 333
339 339 339 338 337 337 337 335 335 336 335 336 337 335 335 335 333 331 331 331 330 329 333 333 331 326 325 326 327 327 327 329 329 331 332 332 336 340 338 336 334 333 332
339 341 340 340 338 339 338 336 335 335 335 335 335 336 336 334 334 332 330 330 330 330 330 329 325 325 324 325 326 326 326 328 329 330 330 330 332 337 338 336 334 333 332
338 340 341 340 340 339 338 338 336 336 336 335 335 336 336 334 333 332 331 330 329 330 329 328 326 324 323 322 323 324 325 328 328 328 330 331 328 332 335 336 334 333 332
337 339 341 341 340 339 338 339 338 337 338 336 336 335 335 334 331 331 331 330 330 330 327 326 324 322 320 322 321 323 326 327 327 328 329 330 329 327 330 333 334 334 332
334 336 339 342 340 339 338 339 339 337 338 336 336 336 335 334 333 330 329 329 328 329 328 326 326 324 323 324 320 321 323 327 328 328 329 329 328 329 327 329 331 332 332
312 333 336 339 339 338 338 338 338 336 336 335 333 335 335 335 333 331 330 328 328 327 327 327 326 326 324 323 323 323 325 325 327 329 327 327 326 324 325 327 327 328 330
306 320 334 337 337 339 338 336 335 333 332 334 333 332 332 335 333 330 328 328 330 330 327 326 326 326 325 323 323 324 324 325 327 327 326 327 324 321 322 325 326 325 325
304 309 330 334 336 338 336 333 331 331 330 330 332 332 330 331 332 331 329 327 327 328 328 328 327 325 323 325 323 322 321 323 325 325 325 324 322 322 321 323 324 323 325
306 309 328 333 336 337 337 336 333 332 328 330 329 330 331 329 330 329 328 327 327 326 326 327 326 323 324 325 319 318 312 316 322 323 323 323 321 322 321 323 323 322 323
314 314 324 331 336 337 337 334 328 326 325 323 326 328 328 330 330 330 328 327 325 326 326 325 325 324 320 322 322 317 310 309 315 320 321 321 320 319 320 321 322 323 322
308 313 316 322 333 336 337 333 330 329 326 328 328 328 328 329 329 329 328 326 325 326 325 324 325 323 321 318 321 321 318 316 311 309 317 319 320 318 318 319 320 321 321
304 306 310 313 318 332 333 334 331 330 331 324 325 324 327 327 328 328 326 323 321 320 319 321 322 321 321 319 319 316 317 315 315 313 310 312 315 318 319 320 320 319 320
300 302 304 306 309 315 322 331 331 329 327 324 324 324 325 325 324 326 325 323 321 318 317 318 321 321 320 321 321 318 316 314 312 313 312 312 313 315 317 319 319 319 320

GFSSE_sfc_thetae_117.txt.gz
Theta_e
339 346 349 352 352 351 350 350 350 350 351 353 353 353 353 354 354 354 354 355 355 355 354 353 354 354 352 351 351 350 350 350 350 351 352 351 351 351 350 350 348 346 349
342 347 348 350 352 351 351 350 350 351 352 352 353 353 353 353 354 354 354 355 355 354 353 353 352 351 351 351 350 350 349 349 349 349 350 350 349 348 348 349 348 345 348
342 347 348 349 350 351 351 351 351 352 352 352 352 353 353 353 354 354 354 354 354 354 352 352 352 351 350 350 349 349 348 348 347 348 349 344 344 347 348 347 347 347 347
343 346 347 348 349 350 351 351 351 353 352 352 352 353 353 353 354 354 353 353 353 354 352 352 352 350 350 348 348 347 347 346 345 345 341 342 343 347 348 347 346 347 347
342 345 346 347 348 350 349 350 351 351 351 351 351 352 353 353 353 353 352 351 353 353 352 351 350 348 347 345 345 345 345 344 343 341 337 339 342 345 347 346 346 346 345
342 343 343 344 346 349 350 350 350 349 349 349 350 352 353 353 353 352 349 350 352 353 353 350 348 347 344 343 343 343 342 341 340 336 337 341 340 346 346 345 345 344 344
340 342 343 342 345 348 350 350 350 348 347 348 349 350 351 352 352 350 347 348 349 352 352 350 347 345 343 342 342 340 339 338 336 334 335 336 338 345 345 344 343 343 343
338 341 342 344 345 346 348 348 346 346 346 347 348 349 350 350 349 348 347 347 348 348 348 347 344 343 342 341 340 337 336 337 336 333 335 336 340 343 343 343 342 341 341
338 339 340 342 344 344 343 343 342 343 345 345 346 346 347 346 345 346 346 346 346 346 346 345 342 341 341 340 337 335 334 336 333 334 336 337 342 340 340 340 340 340 339
336 337 337 339 341 342 343 341 340 341 342 343 344 343 343 342 343 344 344 344 345 345 345 343 341 340 340 337 335 334 332 334 332 332 334 335 341 343 342 340 340 338 337
334 334 336 337 338 340 343 343 341 342 341 341 343 342 339 340 340 342 341 341 342 342 342 342 340 338 335 333 334 333 332 330 331 332 333 337 340 342 342 339 338 337 336
331 333 334 335 336 336 341 342 343 343 340 338 340 340 340 337 337 339 339 339 340 340 340 339 338 337 333 329 329 332 329 329 330 331 333 336 340 342 341 339 337 336 335
331 333 334 335 335 335 337 339 339 340 339 334 334 336 336 336 335 335 334 336 335 338 335 335 335 331 328 326 325 325 326 327 328 332 333 335 339 341 341 338 336 335 334
332 332 334 335 335 335 335 336 337 337 338 338 336 334 337 335 332 331 331 331 331 331 331 330 332 327 325 325 325 325 326 326 327 331 332 332 337 341 340 338 336 334 332
333 334 334 335 334 334 334 333 334 335 336 337 337 336 337 336 335 330 329 330 328 327 333 331 330 325 323 324 325 325 325 325 326 328 330 330 331 337 339 338 336 333 331
336 336 336 334 334 334 334 332 333 333 334 333 334 336 335 336 334 331 329 329 327 328 327 329 326 324 323 323 323 326 324 325 325 326 328 330 328 333 336 338 336 334 332
336 339 337 335 335 334 334 334 333 333 333 332 332 332 334 333 332 331 330 328 328 328 325 324 322 321 320 321 321 324 323 324 324 325 327 328 329 327 330 333 334 334 333
334 336 340 340 337 336 335 336 335 334 334 334 334 334 334 333 331 330 330 329 328 327 326 324 325 324 319 319 318 319 321 323 324 325 326 329 330 330 328 329 332 333 332
332 335 338 339 338 337 336 336 336 335 335 335 335 334 333 333 332 330 329 328 327 328 327 326 326 326 323 322 322 318 321 322 323 327 327 328 329 329 329 327 328 328 330
317 333 337 339 338 338 338 334 334 331 334 334 334 335 334 334 332 330 329 326 327 328 328 327 326 326 324 324 323 323 323 325 326 327 327 328 327 326 325 326 326 325 325
300 308 331 334 337 337 335 332 332 331 332 332 333 334 334 334 332 330 328 326 328 329 328 327 326 324 323 324 322 321 322 323 324 326 327 327 326 323 323 323 324 322 324
311 307 316 331 335 336 337 335 335 334 330 332 328 329 332 332 331 330 328 326 328 329 327 327 326 324 324 324 320 317 313 317 321 324 325 324 324 323 322 322 322 321 322
305 307 314 325 331 335 337 336 327 327 326 325 327 329 329 330 330 330 328 327 327 328 327 327 327 324 321 323 322 317 310 310 315 321 321 323 322 321 322 321 321 322 322
301 304 307 312 322 332 334 333 328 329 327 329 330 331 329 329 328 329 328 326 326 327 326 327 326 325 324 320 322 321 318 316 312 310 319 320 321 321 319 320 321 321 323
299 300 303 306 309 315 323 333 330 327 327 324 325 328 327 327 328 328 327 325 325 326 328 326 324 324 323 321 320 318 319 317 315 312 311 313 318 319 319 319 320 320 321
297 298 301 303 305 309 313 316 330 329 326 323 322 325 326 325 326 327 327 326 325 325 322 322 322 323 322 320 320 317 316 313 314 314 312 313 313 316 318 319 319 319 320

GFSSE_sfc_thetae_120.txt.gz
Theta_e
337 345 349 351 351 351 350 350 350 351 352 354 354 354 354 354 354 354 355 355 355 355 354 353 355 355 354 352 352 351 351 351 350 350 353 352 351 350 349 350 348 346 349
340 346 348 351 351 351 350 350 350 351 353 354 353 353 353 354 354 354 355 355 355 355 353 352 354 354 352 352 350 350 349 349 348 348 350 350 350 349 349 348 347 346 348
342 346 348 349 350 351 351 351 351 352 353 353 353 353 353 354 354 354 354 354 354 354 353 353 352 351 350 351 349 349 349 348 347 348 349 345 346 348 349 348 348 348 347
343 345 346 349 349 350 350 350 351 352 352 353 353 353 353 354 354 354 353 352 353 353 352 352 352 351 350 349 348 348 348 347 346 345 342 343 345 348 348 347 347 348 347
343 345 346 347 348 349 349 350 350 350 350 351 351 353 354 354 354 353 352 351 352 353 352 350 350 349 348 346 345 346 345 344 343 341 339 341 344 346 347 347 346 346 346
342 344 344 345 346 349 350 350 350 349 348 349 350 352 353 354 354 352 350 351 352 353 350 348 348 347 344 344 344 344 343 341 340 338 338 342 341 346 346 345 345 344 344
340 341 344 343 346 348 350 350 349 347 347 348 349 351 351 352 352 350 349 350 351 351 351 349 347 344 343 342 342 341 340 339 337 336 338 339 339 345 345 344 344 343 343
339 340 342 344 345 346 347 348 346 345 346 347 348 349 350 350 349 348 347 348 348 349 348 346 344 343 342 342 340 338 337 337 337 335 337 336 340 343 345 343 342 342 342
337 338 339 342 344 343 343 343 342 343 344 345 346 346 347 346 345 346 346 347 347 347 346 344 342 341 341 340 338 335 335 336 335 335 336 336 341 341 340 340 340 342 342
335 337 338 338 340 340 343 341 341 342 342 343 343 343 342 343 343 344 344 344 346 346 345 343 341 340 339 338 336 334 333 335 333 334 335 336 339 340 341 340 339 339 339
333 334 337 340 341 342 342 342 341 342 341 341 342 341 339 341 342 342 342 341 343 343 342 342 340 338 336 336 335 333 332 332 332 332 334 337 338 340 339 340 338 338 337
330 333 336 338 338 340 340 342 342 342 342 342 343 340 338 336 338 340 340 339 341 340 340 340 338 336 333 333 331 333 328 329 330 331 333 336 340 343 342 340 339 338 337
330 332 335 336 337 337 338 339 340 341 340 337 337 337 337 334 335 335 335 338 336 339 335 335 335 333 328 327 327 328 328 328 329 331 333 335 339 341 341 340 339 337 336
328 330 333 335 335 336 338 337 337 338 339 337 334 334 338 337 334 331 333 333 332 333 331 331 334 328 327 326 326 325 326 327 327 329 332 331 336 341 341 340 338 336 335
326 329 331 334 333 334 334 336 336 336 338 338 336 335 339 338 335 331 329 330 330 329 330 330 331 325 324 324 325 325 325 326 326 328 330 329 330 337 340 339 337 335 333
331 329 331 332 333 333 332 333 334 335 336 336 336 337 338 337 335 333 329 328 327 331 334 332 330 324 323 324 323 324 324 325 326 327 328 329 328 332 336 338 337 335 333
334 333 331 332 332 332 332 331 332 333 334 332 333 336 335 336 335 333 331 328 327 327 329 329 325 322 321 322 322 323 324 326 325 325 327 328 329 327 330 335 336 336 334
334 334 334 334 332 331 332 331 331 331 331 331 331 333 334 334 333 331 331 329 326 326 325 324 324 323 320 320 319 320 322 323 324 324 325 327 328 330 328 330 332 333 333
332 334 336 335 332 331 332 332 331 329 330 330 330 331 333 333 332 332 332 329 326 327 326 325 325 325 323 321 319 318 320 321 323 326 325 326 327 328 330 328 328 328 330
327 334 337 338 336 334 333 332 332 331 331 332 332 332 331 333 331 330 329 327 328 329 328 327 326 326 325 324 324 322 320 321 323 323 324 327 328 329 329 328 328 328 326
303 302 327 335 337 336 335 332 332 331 332 333 332 333 332 332 331 330 329 326 329 329 327 326 327 324 323 324 321 321 321 323 324 325 326 326 327 328 327 328 327 327 326
303 305 308 324 334 336 336 335 333 333 334 334 334 333 333 333 331 331 330 327 328 328 328 327 326 323 324 324 320 318 314 317 321 323 325 326 326 327 324 325 326 324 325
299 300 304 308 326 335 337 336 329 329 326 328 328 330 332 333 332 331 330 329 328 329 328 327 327 325 321 323 323 318 311 310 315 321 322 324 324 324 324 324 324 324 324
296 299 302 306 311 324 334 333 331 330 329 331 331 332 332 333 333 331 329 328 329 329 329 328 328 327 324 319 322 322 319 317 311 310 319 321 323 322 322 323 323 323 323
296 297 300 306 309 312 316 331 329 329 329 325 327 328 331 328 329 330 328 327 328 328 328 326 326 326 325 323 321 319 318 316 316 313 310 315 320 322 322 322 322 322 322
296 297 299 302 305 308 312 314 320 328 323 323 324 326 327 327 327 327 327 326 326 327 327 327 326 325 323 323 322 319 319 316 315 314 312 313 315 317 320 321 321 322 322

GFSSE_sfc_thetae_123.txt.gz
Theta_e
342 349 350 352 351 351 350 350 351 352 354 355 354 353 354 354 354 354 355 355 355 355 355 354 355 355 354 354 355 352 352 351 350 352 353 353 352 351 350 351 349 348 351
346 350 349 350 351 351 351 350 350 353 354 355 354 353 353 354 354 354 355 355 355 356 353 353 355 354 352 352 351 350 350 349 349 349 352 351 350 350 350 349 348 349 350
347 350 351 349 350 351 351 351 351 353 354 354 354 353 353 354 355 355 354 354 354 355 353 352 352 351 351 351 350 350 349 348 348 349 350 349 349 349 349 349 347 349 349
347 349 351 348 349 350 350 350 351 353 354 353 353 353 353 354 354 354 353 352 353 354 353 352 352 351 350 348 349 349 348 347 346 347 349 349 347 348 348 348 349 348 348
347 349 351 347 348 350 350 350 350 351 351 351 352 354 354 354 354 354 351 351 353 354 353 352 352 350 348 346 346 347 347 345 344 346 347 347 348 347 348 347 347 347 346
346 348 347 345 347 349 350 350 350 349 349 349 351 353 353 354 354 352 350 351 352 353 351 350 350 348 345 344 344 344 344 342 342 348 347 346 347 346 348 346 346 345 345
346 348 350 343 346 348 350 350 349 348 347 348 350 351 352 353 353 351 349 349 350 351 350 349 348 345 344 343 343 342 340 340 347 347 346 346 346 345 346 344 344 344 344
347 348 350 346 346 346 348 348 346 345 346 347 349 350 351 351 350 349 349 348 349 348 348 347 344 343 343 342 341 339 338 339 344 346 346 346 342 341 342 342 341 341 342
346 348 349 350 349 344 343 343 342 343 344 345 346 347 347 347 346 347 347 348 348 347 346 344 342 341 342 341 339 337 336 337 345 346 344 345 341 339 339 338 340 340 341
344 346 347 348 350 351 351 341 340 341 341 342 344 344 343 343 344 344 344 346 346 346 345 343 341 340 340 338 336 335 334 336 343 343 344 344 340 342 341 339 339 339 339
341 344 346 346 348 349 348 347 342 342 341 341 343 342 341 350 350 348 344 342 344 344 343 341 340 338 337 336 336 334 335 343 343 342 344 338 340 340 338 338 338 338 339
337 339 343 345 345 346 344 345 348 348 347 348 348 349 349 350 350 347 344 340 341 341 340 340 339 336 337 342 342 335 341 342 342 342 341 336 339 340 338 337 339 338 337
336 339 340 342 344 343 342 343 345 345 344 345 347 348 349 348 349 348 349 346 348 342 345 342 342 342 339 338 342 342 341 340 341 341 339 334 338 339 340 340 339 339 339
332 336 339 341 341 341 342 340 341 341 341 341 341 343 343 343 346 347 346 347 346 346 345 344 342 338 342 340 340 341 340 340 339 340 339 332 334 339 340 339 339 339 337
332 333 337 338 338 337 339 340 340 339 340 340 340 342 342 342 341 344 345 345 346 346 344 342 340 341 340 339 338 337 337 338 339 338 340 330 331 336 340 341 339 338 337
335 334 336 338 339 339 338 339 338 339 340 340 340 341 342 343 340 340 341 343 342 344 343 342 339 339 339 338 336 333 334 336 336 337 338 339 329 330 336 339 338 336 336
334 338 335 337 339 339 338 338 337 337 337 338 338 340 341 341 341 339 337 340 342 341 341 339 336 334 338 336 333 331 335 335 335 335 336 338 336 325 329 334 335 336 334
328 338 337 336 338 338 339 338 337 337 336 335 336 337 337 339 339 337 335 336 340 337 335 332 330 330 335 335 335 334 334 334 334 333 334 335 337 337 330 329 332 334 334
327 336 338 337 336 338 339 338 339 338 335 334 335 335 335 337 338 335 335 335 338 337 334 331 329 330 328 329 333 334 333 332 333 332 332 333 334 335 336 330 328 329 331
319 335 340 339 339 338 337 337 337 337 337 338 336 337 337 335 335 336 336 335 335 333 333 332 331 330 330 329 328 329 330 331 332 332 332 332 333 334 335 335 336 330 326
313 322 337 339 339 337 335 334 334 333 335 336 336 338 338 339 335 337 335 334 333 333 332 332 330 327 327 328 324 323 324 327 326 328 332 331 332 332 334 333 335 330 328
308 311 315 329 340 338 337 337 337 337 337 337 337 336 338 338 338 338 336 333 332 332 332 331 329 326 327 327 324 323 318 322 324 329 328 329 331 333 331 332 330 329 329
304 306 310 314 321 339 341 339 338 338 337 334 334 334 334 337 338 338 337 334 332 333 330 329 328 329 324 327 330 327 317 317 321 325 325 328 328 329 330 330 330 327 328
301 304 309 315 319 324 335 338 335 334 331 334 333 333 333 337 338 338 336 334 333 333 333 331 332 333 331 325 327 328 329 326 319 318 324 325 327 328 327 328 329 326 327
299 301 306 312 313 315 323 329 335 334 338 338 337 334 333 335 337 337 335 333 333 333 333 331 331 332 331 329 326 325 324 323 324 320 317 320 324 326 327 326 328 326 327
298 300 303 305 306 309 312 313 317 331 334 332 335 333 332 334 333 333 333 333 332 331 332 331 332 333 331 329 329 327 324 320 318 320 316 318 318 322 326 324 324 325 324

GFSSE_sfc_thetae_126.txt.gz
Theta_e
346 354 350 352 352 352 352 352 353 353 354 354 354 354 354 354 354 354 356 356 356 357 355 354 355 355 353 353 356 353 354 353 352 353 354 353 352 350 350 351 348 349 350
347 354 349 350 351 352 352 352 353 354 355 354 354 354 353 354 354 355 356 355 356 356 354 353 354 353 352 356 352 352 352 350 350 352 352 351 351 351 349 349 350 349 349
348 354 353 349 351 351 352 352 354 355 356 354 354 354 354 354 355 355 355 354 355 356 354 353 352 351 351 352 351 351 350 349 349 351 351 348 349 350 348 348 348 349 350
350 354 353 348 350 351 351 351 353 355 355 354 354 354 354 355 355 355 354 353 354 355 354 353 352 351 350 350 350 349 349 348 348 348 350 348 346 349 348 348 349 349 348
350 353 353 347 348 349 350 351 352 353 353 353 353 354 355 355 355 354 352 352 354 355 354 352 352 351 349 347 348 348 347 346 346 347 348 348 347 348 348 347 346 346 345
349 352 348 345 347 349 350 350 351 351 350 351 352 354 355 355 355 353 351 351 354 354 354 353 351 348 346 345 346 346 345 344 344 347 346 347 347 348 347 346 345 344 344
350 353 353 343 346 348 350 350 350 348 348 350 351 352 353 354 353 351 350 350 351 352 351 351 349 346 344 344 344 344 342 342 348 345 346 347 347 346 345 343 342 342 345
352 354 354 347 346 347 348 348 346 346 347 348 349 350 352 352 350 350 349 349 350 348 347 348 346 345 344 343 343 341 340 341 344 346 345 347 344 343 341 340 339 340 341
354 355 356 353 350 344 344 344 342 344 345 346 347 348 349 348 347 348 348 348 349 347 347 346 343 343 343 342 341 339 338 340 347 348 345 346 342 339 337 338 338 339 340
353 354 355 354 354 353 353 341 341 342 342 344 345 345 344 344 346 347 346 347 347 347 345 344 342 341 341 339 338 337 337 338 346 344 346 345 338 335 336 340 340 341 341
349 352 354 353 353 354 353 350 343 342 342 342 345 343 343 351 352 351 346 344 345 345 343 342 341 340 338 337 336 336 336 343 344 344 346 337 338 339 340 340 339 340 340
345 348 351 352 352 353 350 353 352 351 349 349 350 351 351 350 351 348 345 342 342 342 341 340 339 338 338 345 343 336 342 345 344 345 345 337 341 341 340 338 339 339 340
342 345 348 351 352 351 349 349 349 350 349 349 351 351 351 349 351 349 349 348 349 342 346 343 343 344 344 344 343 343 342 344 342 342 341 336 339 340 339 337 336 337 338
331 342 345 348 350 351 348 347 349 348 347 347 349 352 350 349 349 348 347 347 347 347 346 345 343 344 345 345 344 343 343 342 340 341 341 334 336 339 339 337 337 338 337
321 337 342 346 347 348 348 346 347 347 347 345 345 348 349 348 348 348 348 347 346 347 346 344 343 344 343 343 342 342 341 341 341 340 341 332 333 335 339 338 339 338 335
318 331 342 343 345 345 345 346 345 346 346 346 344 345 346 348 348 347 347 346 347 348 346 344 343 342 341 341 340 340 339 339 340 339 339 340 331 333 336 339 338 337 335
316 323 336 342 345 344 343 345 345 344 345 344 344 344 345 347 347 345 345 345 345 346 346 345 343 342 341 340 339 339 338 338 337 338 338 339 337 326 329 334 337 336 335
316 317 325 338 342 344 343 343 343 343 343 343 344 346 343 345 347 344 341 343 347 346 345 342 340 339 339 338 338 338 338 338 339 338 338 338 338 339 329 330 333 334 334
315 317 321 337 341 342 343 343 343 343 340 342 343 344 345 343 346 342 340 341 345 340 339 339 337 339 337 338 337 338 338 337 337 337 336 336 338 337 337 329 328 329 331
317 319 319 330 342 343 343 343 341 341 341 341 339 340 342 340 342 341 339 339 340 339 337 337 335 335 337 337 334 334 336 337 337 337 336 335 335 336 337 337 338 333 326
318 320 318 325 340 342 340 337 337 337 339 339 340 342 342 339 339 339 340 339 338 337 337 337 335 333 333 336 333 331 331 334 334 334 337 335 335 336 337 337 338 337 334
314 316 319 327 333 342 341 338 338 338 338 339 340 341 342 342 341 337 339 337 336 339 336 336 335 330 333 334 328 327 324 327 330 331 334 334 335 335 334 335 336 335 336
311 312 315 322 335 340 341 341 339 339 339 338 339 338 340 341 342 340 342 342 340 339 335 335 334 331 328 330 334 328 322 319 324 330 329 332 333 332 333 333 334 334 335
305 308 313 320 324 333 337 339 340 338 336 339 340 341 340 341 341 342 342 342 341 337 338 334 334 334 332 326 329 333 332 329 322 319 329 327 329 329 330 332 332 333 333
300 302 306 312 318 324 331 328 336 338 340 341 339 339 338 338 341 341 341 342 340 336 337 335 333 333 336 334 331 330 330 330 329 323 320 325 328 330 332 331 329 331 332
299 299 302 304 307 313 319 318 323 333 339 337 338 337 336 336 336 338 341 341 339 337 335 336 334 335 335 336 335 331 328 326 324 323 321 323 323 326 329 331 330 332 333

GFSSE_sfc_thetae_132.txt.gz
Theta_e
347 349 350 353 354 355 354 354 353 353 354 354 355 355 355 355 355 356 356 356 357 358 357 356 355 354 352 352 353 354 353 352 352 353 354 353 351 350 350 351 350 347 351
351 349 348 352 353 354 354 354 353 353 354 354 355 354 354 355 355 356 356 357 357 357 355 354 355 354 355 355 352 352 352 351 351 352 353 351 350 350 349 348 349 347 349
353 351 349 350 352 354 354 355 354 355 355 355 354 354 354 354 355 355 355 355 356 356 354 354 354 352 355 353 351 351 351 351 351 348 351 345 345 350 348 349 347 347 350
351 352 349 349 351 353 353 354 354 355 355 354 354 354 354 354 355 355 354 354 355 356 354 352 352 352 353 350 350 350 350 349 349 347 346 344 344 349 347 347 347 347 348
348 353 352 348 349 352 352 353 354 354 353 353 354 354 355 355 355 355 353 353 355 356 354 352 352 351 349 348 347 348 348 347 347 346 340 333 344 348 347 349 347 347 345
349 353 345 346 348 350 352 353 353 353 351 351 353 354 354 355 355 354 352 352 354 355 355 354 351 349 347 346 346 346 346 346 345 342 341 343 345 348 347 346 344 345 343
353 351 348 344 346 349 352 353 352 351 350 351 352 353 354 354 354 352 350 351 353 354 353 353 349 346 345 345 345 344 343 343 343 341 342 344 343 348 345 344 342 343 342
355 356 349 346 346 347 349 350 348 348 349 349 351 352 353 352 352 350 350 350 351 351 350 349 346 345 344 344 344 342 341 341 343 343 343 342 345 345 344 342 341 340 339
357 358 353 349 347 345 344 345 344 346 347 348 348 349 350 349 348 349 349 350 350 348 348 347 344 343 343 343 342 340 339 341 340 342 343 340 345 344 343 341 340 338 338
357 356 354 351 349 348 348 342 343 344 344 345 347 347 346 346 346 347 347 347 348 347 346 345 343 342 342 341 340 339 338 339 337 340 341 339 344 344 342 340 339 339 340
351 354 351 349 349 349 348 346 342 344 344 344 346 345 342 349 348 347 346 344 346 345 345 343 341 340 339 339 339 338 337 338 338 338 339 339 344 344 342 340 339 340 340
325 343 352 351 348 349 347 347 346 346 346 347 348 348 349 348 348 347 344 342 344 343 342 341 340 339 337 339 336 337 336 337 337 337 338 337 341 340 341 339 339 339 340
318 321 350 352 350 348 347 348 345 345 344 345 347 348 348 346 347 344 345 344 345 342 342 339 339 339 338 338 338 336 337 339 337 339 336 336 339 340 341 340 339 338 337
313 319 320 352 349 350 348 348 348 345 345 344 346 348 346 346 346 344 345 345 345 344 343 340 339 338 339 339 338 337 338 337 336 340 334 334 339 341 342 340 338 337 336
309 313 321 331 349 347 348 349 348 346 346 346 346 347 348 345 345 345 344 345 344 344 341 340 339 338 338 338 338 338 337 334 337 337 334 332 336 340 341 340 339 337 335
310 310 314 320 334 347 345 347 346 348 348 346 346 347 348 346 345 345 345 343 343 343 342 341 339 338 338 336 337 337 338 336 334 337 337 333 332 336 339 341 340 337 337
309 310 312 315 323 347 346 344 345 344 343 346 346 348 347 347 346 345 344 343 343 343 342 341 342 338 337 338 336 336 336 337 337 335 337 335 332 330 333 337 338 339 339
311 312 313 314 318 325 345 344 343 344 344 344 345 345 347 347 346 345 344 342 343 344 342 339 337 335 335 335 334 335 334 334 335 334 335 337 334 333 330 331 334 337 338
309 312 314 317 319 322 324 340 343 343 344 342 345 344 344 344 346 345 342 343 343 342 341 339 338 336 334 333 334 334 332 334 335 335 334 334 334 334 333 329 330 331 333
307 310 311 313 317 319 319 323 340 342 342 343 341 342 344 343 342 344 343 342 344 341 339 339 337 337 335 332 334 333 334 334 334 335 333 334 333 333 334 334 329 329 327
303 304 307 309 311 312 314 317 325 335 338 339 339 341 343 342 341 341 343 340 339 339 339 338 336 332 331 333 329 329 330 331 330 332 332 333 333 334 333 333 332 330 328
299 300 302 305 307 308 311 317 321 328 337 338 340 339 340 344 341 340 342 339 338 336 337 336 335 332 332 333 326 325 319 324 329 331 332 332 330 332 332 333 333 332 331
294 297 299 301 302 305 308 314 318 323 332 335 337 337 339 342 343 340 340 339 336 336 334 335 334 332 328 331 332 324 316 314 319 328 329 330 329 329 330 330 331 333 331
292 295 296 298 300 304 307 311 313 314 319 332 335 337 337 339 341 341 339 338 338 335 333 333 335 332 330 327 329 332 328 326 317 315 326 328 328 327 328 329 329 329 331
291 291 294 296 300 302 304 308 311 314 323 331 335 335 336 336 338 340 337 336 337 335 334 335 335 333 332 329 327 325 327 328 327 321 315 321 325 326 328 328 328 328 330
290 290 291 294 298 300 301 307 310 311 320 328 325 331 334 336 337 338 337 336 336 337 335 335 335 334 331 331 329 327 325 323 323 323 319 319 320 324 326 327 327 328 329

GFSSE_sfc_thetae_135.txt.gz
Theta_e
344 348 350 353 354 353 353 351 351 352 353 354 354 354 354 354 354 354 355 355 356 357 356 355 355 354 354 353 354 352 351 351 350 352 353 353 351 351 351 351 350 348 349
346 348 349 352 353 354 354 352 351 352 354 355 354 354 353 353 354 355 355 356 356 357 354 354 355 354 353 352 351 351 350 350 349 350 351 350 352 350 349 349 348 348 350
346 348 350 350 352 353 354 353 353 354 354 354 354 353 353 354 354 354 355 355 356 356 353 353 354 354 354 351 350 350 350 350 348 348 348 344 346 350 348 348 347 346 347
347 346 349 349 351 353 353 352 353 354 354 354 354 354 354 354 354 354 354 353 354 355 354 353 352 353 352 348 348 349 348 349 347 345 339 342 344 350 349 348 349 349 347
347 346 349 347 349 351 352 352 352 352 352 352 353 354 354 354 355 354 352 351 354 355 355 352 352 351 348 346 346 347 346 346 346 342 333 331 342 347 348 349 347 346 345
348 348 344 345 347 350 351 352 352 351 350 350 351 353 354 354 354 353 350 351 353 354 354 354 350 347 345 344 344 345 344 344 343 340 332 333 343 349 347 347 345 345 344
346 346 346 344 346 350 352 352 351 349 348 349 351 351 352 353 353 351 349 351 352 352 353 351 347 345 344 344 343 343 342 342 342 340 340 341 343 348 346 345 344 343 343
347 345 346 346 346 347 349 349 348 347 347 348 349 350 351 351 350 349 349 350 350 351 349 347 345 344 343 343 342 341 340 339 341 340 340 340 345 348 345 343 342 342 342
350 346 345 344 346 345 344 345 344 346 346 347 347 348 349 348 347 347 348 349 349 349 347 345 343 342 342 342 341 339 338 339 338 340 340 339 345 346 345 342 340 340 340
347 348 344 343 343 342 341 342 342 343 344 345 346 346 345 345 345 346 346 347 347 346 346 344 342 341 341 340 339 338 337 337 335 339 338 339 344 345 344 341 340 338 339
338 346 344 343 343 342 341 342 342 344 343 343 344 344 341 345 345 345 344 344 346 344 344 343 341 339 338 338 338 337 336 335 335 337 337 340 344 345 343 341 341 341 340
305 315 343 343 342 343 345 341 339 342 342 343 344 345 344 343 344 346 343 341 343 342 342 340 339 338 337 336 336 336 334 335 335 335 336 338 344 345 343 341 340 340 341
302 305 336 344 344 343 343 341 340 340 340 342 343 343 343 344 343 343 341 341 342 341 340 338 337 337 336 335 334 333 334 334 335 336 335 337 342 343 342 340 339 339 341
301 304 305 325 343 342 344 343 340 339 340 340 342 343 343 341 340 339 340 340 341 341 337 336 335 335 335 336 336 335 334 334 335 334 334 333 338 342 342 341 340 340 338
306 307 310 308 320 337 342 343 342 340 340 340 341 343 343 341 339 339 340 341 341 340 340 335 335 335 335 335 336 334 334 333 334 333 332 332 334 339 342 342 341 339 338
305 306 308 312 314 316 325 341 344 342 342 341 341 342 344 341 339 341 339 341 341 340 339 337 335 334 334 334 334 335 334 332 336 334 332 332 331 335 339 341 340 339 338
302 304 306 308 310 313 316 319 329 344 343 342 342 342 344 342 340 341 340 339 340 339 337 336 334 334 332 333 332 335 333 335 334 335 334 332 333 331 334 337 339 340 339
299 300 302 306 307 310 311 316 320 325 340 341 343 343 343 344 341 340 340 340 339 339 338 337 333 331 332 331 331 334 334 333 333 335 335 334 334 335 331 333 336 337 337
297 298 299 301 303 306 308 311 315 320 327 341 341 343 343 343 342 341 341 340 340 339 337 337 332 331 329 329 329 330 332 329 332 334 333 334 333 333 333 331 330 331 333
294 296 297 299 300 302 304 307 310 317 321 332 339 340 340 343 342 342 339 340 340 338 337 336 333 331 330 329 332 330 328 328 329 329 329 333 332 331 331 331 330 330 327
293 293 295 296 297 299 300 301 305 306 316 321 330 339 340 341 342 341 339 337 339 337 336 336 332 330 328 329 326 325 325 328 327 328 329 329 331 332 332 332 330 328 327
291 291 292 293 295 296 299 301 303 307 313 317 322 329 340 341 340 340 340 337 337 337 334 334 333 327 327 328 323 320 317 322 325 327 328 329 327 329 329 330 330 330 328
289 289 290 291 294 296 298 301 303 307 310 313 317 327 335 339 340 337 337 339 336 335 333 335 335 333 328 326 327 321 314 312 316 324 327 328 328 327 327 329 330 330 329
288 289 289 290 293 296 300 299 300 302 304 308 314 319 325 337 339 338 336 339 338 334 333 332 335 333 330 325 325 329 322 320 313 312 322 325 326 326 327 327 328 329 330
287 287 288 290 292 293 299 300 300 302 308 309 315 320 327 332 338 338 336 337 335 335 332 332 332 332 331 328 326 321 327 323 322 318 313 320 324 326 328 327 327 328 329
287 287 287 289 290 292 295 299 300 303 306 309 314 321 324 327 333 337 337 337 335 334 332 331 332 332 331 329 327 326 324 323 322 321 319 316 320 322 326 327 326 326 327

GFSSE_sfc_thetae_138.txt.gz
Theta_e
343 348 350 353 353 352 351 351 350 351 352 353 353 353 353 354 355 355 355 355 356 356 354 353 354 355 353 352 351 351 350 350 350 352 353 352 352 351 352 351 350 348 351
345 348 348 352 353 353 351 351 351 351 353 353 353 352 353 353 353 354 354 355 355 356 353 353 354 354 352 351 350 349 350 348 348 349 351 351 351 351 350 348 348 347 348
345 348 350 350 352 353 353 352 352 353 353 353 353 352 353 354 353 353 354 354 355 355 353 353 352 353 350 350 349 349 349 348 347 347 348 343 344 350 348 348 348 348 348
345 347 348 349 351 352 352 351 352 353 353 353 353 353 353 354 354 354 353 352 354 355 353 353 352 353 350 348 348 348 348 347 346 343 342 343 343 350 349 348 348 348 348
344 347 348 348 349 351 351 351 351 352 352 351 352 353 353 354 354 353 351 351 353 355 353 353 351 350 347 345 346 346 346 346 343 338 332 337 341 348 347 349 347 347 345
344 347 344 344 347 350 351 351 351 350 349 349 350 352 353 354 354 352 350 351 353 354 354 353 349 347 345 343 344 344 343 343 343 337 328 337 343 348 347 347 345 345 345
344 345 345 342 346 349 351 351 350 349 347 348 350 351 352 353 352 350 349 350 351 352 353 351 347 345 343 342 343 342 342 341 340 338 333 337 342 348 346 345 345 344 344
343 344 345 345 345 347 349 349 347 346 346 347 348 349 351 350 350 349 348 349 349 349 349 346 344 344 343 342 341 340 339 338 340 338 339 339 345 347 346 344 343 343 343
344 342 342 343 345 344 344 344 343 344 345 345 346 346 347 346 346 347 347 348 349 348 347 344 343 341 342 341 340 338 336 337 337 338 339 339 345 347 345 343 342 342 342
344 345 341 340 342 342 342 341 342 343 342 343 344 344 343 343 344 345 345 346 347 347 346 343 341 340 340 339 338 336 335 337 333 337 337 338 345 346 344 342 341 341 341
306 311 343 340 341 340 339 342 342 343 342 341 343 342 341 345 344 344 343 343 345 344 343 342 340 339 337 337 337 335 335 334 335 336 335 339 345 346 344 341 341 340 339
305 307 310 315 334 341 343 340 339 342 342 342 344 344 345 343 343 345 342 341 342 341 341 340 339 337 336 335 335 336 334 334 335 334 335 338 344 345 344 341 340 339 340
305 307 309 311 314 317 332 341 337 339 341 341 342 345 343 343 341 342 341 341 341 340 339 338 336 335 334 333 333 333 333 333 333 333 335 336 342 346 344 342 340 340 340
302 303 305 308 310 312 318 321 335 339 338 340 342 343 342 341 340 339 340 339 340 341 337 335 334 333 333 334 333 332 332 332 332 334 332 334 338 345 344 342 340 339 340
298 300 302 303 307 308 312 315 318 322 338 338 341 342 343 342 339 339 338 338 340 341 337 333 333 333 333 332 334 333 332 333 333 333 331 332 333 340 343 342 340 340 340
297 297 299 300 302 304 306 308 312 319 322 337 338 341 343 342 340 339 338 338 339 340 339 335 333 332 331 332 332 333 332 332 333 331 331 333 330 334 339 341 341 340 340
294 295 296 298 300 300 303 305 307 313 318 322 337 339 341 341 340 339 338 338 339 340 338 336 333 332 330 330 331 332 331 331 332 333 332 332 331 329 333 337 339 340 339
293 293 294 297 296 297 299 301 305 308 313 321 327 339 340 342 340 339 339 339 340 339 338 336 334 332 331 330 330 330 333 331 332 334 333 332 331 334 331 332 335 337 338
292 292 292 294 294 295 297 299 302 304 309 313 320 323 334 341 341 339 340 339 339 338 337 336 334 333 330 329 329 329 333 331 331 334 332 332 332 333 334 332 330 331 333
290 291 291 292 293 293 295 297 300 302 305 307 314 322 322 329 341 339 340 339 339 338 337 335 333 332 329 329 331 329 327 327 326 328 330 333 332 332 332 333 332 331 328
289 289 289 290 290 291 292 294 296 298 301 305 310 315 317 323 330 338 338 338 338 337 336 335 333 329 326 327 324 322 323 325 324 325 327 329 330 330 330 331 331 330 329
287 288 288 288 290 291 292 294 297 299 301 305 307 312 317 320 328 336 337 337 338 337 336 334 333 329 329 329 324 322 321 321 323 326 327 327 327 330 329 329 329 328 328
286 286 288 289 290 291 293 295 298 300 300 301 304 307 312 317 320 331 335 338 337 338 334 334 334 332 329 325 327 323 315 314 316 321 325 327 327 325 327 328 329 329 327
285 287 288 289 289 291 292 293 295 297 297 300 304 307 308 314 321 324 330 336 337 337 336 335 336 334 332 327 324 326 319 317 313 310 319 324 325 325 326 326 326 328 328
285 287 288 289 289 290 291 292 293 297 300 303 306 306 308 312 318 326 329 333 335 337 337 335 335 334 332 330 329 327 325 319 319 316 311 315 320 325 328 327 327 327 328
286 287 287 288 289 290 290 291 294 297 299 301 302 304 308 313 321 321 320 320 329 335 335 334 334 335 332 330 329 324 326 324 321 317 316 314 315 319 324 324 326 327 327

GFSSE_sfc_thetae_144.txt.gz
Theta_e
340 344 350 352 351 351 350 350 350 351 352 353 354 355 355 355 355 354 355 356 356 357 355 352 352 351 350 350 351 351 352 351 351 352 352 352 351 351 350 351 350 347 351
343 346 349 351 351 351 351 350 350 351 352 353 353 353 354 354 355 355 355 355 355 355 352 352 352 351 349 349 350 349 349 349 349 351 352 352 351 350 349 349 348 347 349
344 347 349 349 351 350 351 351 351 353 353 353 353 352 353 353 354 354 354 353 354 354 351 352 352 350 349 349 349 348 348 348 348 349 350 345 346 349 348 348 348 349 348
345 346 347 349 350 351 350 350 351 353 352 352 352 353 353 353 353 354 353 352 353 353 351 352 352 350 350 348 347 347 347 346 344 346 342 343 346 348 348 348 349 348 346
343 345 347 347 349 350 350 350 350 351 350 350 351 353 353 353 353 353 351 351 353 354 352 352 351 350 347 345 346 346 346 344 342 341 339 340 342 347 347 348 349 348 347
342 343 343 344 347 350 350 350 350 350 348 348 350 352 353 353 353 352 350 350 353 354 353 352 351 347 344 343 344 345 344 342 338 335 336 341 343 348 347 348 346 346 345
334 338 339 340 344 347 350 351 349 349 347 347 349 350 352 353 352 350 349 349 351 352 352 350 348 345 343 342 343 342 341 341 339 334 331 338 342 348 347 346 346 345 345
311 314 314 320 326 338 344 345 345 346 346 346 347 348 350 350 349 348 348 348 349 350 349 346 344 343 342 342 341 340 339 339 340 335 331 337 341 347 346 345 343 343 343
307 307 307 311 315 322 333 338 340 341 341 344 345 345 346 346 345 347 347 348 348 348 347 345 343 341 341 340 339 338 336 337 337 337 335 338 344 347 346 344 343 343 342
303 302 302 306 307 309 319 324 329 337 340 339 342 343 342 343 344 345 345 345 346 347 346 344 341 340 340 339 338 336 335 336 335 336 338 338 344 346 345 344 343 343 341
300 299 299 302 302 305 311 315 319 325 333 338 340 339 339 342 342 343 342 342 344 344 344 342 340 338 337 336 336 335 334 335 333 335 336 338 345 346 345 344 343 341 341
295 296 297 298 300 301 305 308 310 316 319 325 337 340 340 342 342 342 342 340 342 342 342 341 339 337 336 334 334 335 333 333 332 334 334 336 344 345 345 344 342 341 341
294 294 295 296 299 298 299 303 304 308 312 319 320 325 338 341 342 342 342 341 341 342 342 340 337 335 333 332 331 332 332 331 332 333 334 335 342 346 345 344 342 341 340
291 292 293 294 296 296 298 299 301 303 305 311 316 320 325 337 338 339 340 340 340 342 340 339 337 333 332 332 331 330 331 330 331 332 333 333 338 345 345 344 342 341 340
290 291 292 293 293 294 294 295 297 299 301 306 309 313 322 323 333 338 339 340 339 340 339 337 336 333 332 331 331 330 330 330 330 331 332 331 333 340 345 343 342 341 339
289 289 291 291 292 292 292 293 294 297 299 302 304 306 317 321 321 328 337 339 338 339 339 337 335 333 332 331 331 331 330 330 330 331 331 331 330 334 338 343 342 342 340
288 289 290 291 291 291 291 292 293 296 298 299 301 304 308 311 318 321 323 336 338 339 337 336 335 334 329 328 329 330 331 331 330 331 331 331 331 328 332 337 339 341 341
287 288 289 291 290 290 291 291 293 294 296 298 300 302 305 308 311 319 321 321 334 338 337 336 334 331 331 328 328 328 330 331 331 331 331 331 332 333 330 331 335 338 338
286 287 287 289 289 290 291 291 292 293 294 297 299 302 303 306 309 314 317 318 321 331 336 335 333 332 330 329 327 327 328 329 330 331 330 330 331 332 333 330 330 331 334
286 287 287 289 289 290 290 291 292 292 294 295 297 300 302 305 306 307 309 317 320 321 331 335 333 332 331 330 329 327 327 328 330 330 330 331 330 331 333 332 332 331 327
286 286 287 287 288 290 290 289 290 289 291 294 297 299 301 302 303 305 308 313 317 318 323 331 333 331 330 331 325 325 323 324 327 328 330 330 329 329 331 332 331 331 331
285 285 286 287 289 289 290 290 291 291 292 293 296 299 302 302 304 306 308 312 318 319 322 324 329 330 330 330 326 323 320 322 323 326 326 328 328 329 329 330 330 330 331
284 285 286 287 288 288 289 290 291 292 292 293 294 296 300 302 303 305 307 308 309 312 313 327 330 330 327 328 329 323 317 316 321 321 324 326 327 327 328 328 329 330 330
284 286 287 288 287 288 289 288 289 288 288 291 294 296 299 302 303 304 305 306 307 311 314 325 326 322 327 325 327 328 320 319 316 313 318 324 325 325 327 328 328 328 329
285 285 286 287 287 288 288 288 288 288 290 291 293 296 299 301 304 306 307 308 308 310 315 322 326 324 321 325 327 326 322 317 315 312 312 316 323 325 327 327 328 328 328
285 285 286 286 286 287 287 287 288 287 288 289 291 293 295 298 301 304 309 310 311 310 314 317 327 325 326 328 328 327 325 322 318 315 312 312 318 319 324 326 326 327 327

GFSSE_sfc_thetae_147.txt.gz
Theta_e
346 350 351 352 352 351 350 350 350 351 354 356 355 355 354 354 354 354 355 356 357 356 355 353 351 351 351 351 352 353 352 352 352 353 353 352 352 351 351 352 350 348 351
350 353 349 351 351 351 351 350 351 351 354 355 355 355 354 354 354 355 355 356 356 356 353 351 351 350 350 350 350 351 350 350 350 351 352 352 351 351 350 350 348 349 351
349 352 352 349 350 351 351 351 352 352 353 353 354 354 354 354 355 355 355 354 355 356 352 351 351 350 349 350 349 349 349 349 349 351 351 348 347 350 350 349 349 349 349
349 351 352 348 350 350 350 350 351 352 351 352 352 353 354 354 354 354 353 352 353 354 352 351 351 350 349 348 348 348 348 347 347 348 348 348 346 348 348 348 350 349 347
338 339 331 341 346 350 350 350 351 351 350 351 352 352 353 354 354 353 351 351 353 353 352 352 352 351 348 346 346 346 346 344 343 343 347 349 349 347 348 349 348 346 347
316 318 323 329 336 345 350 350 350 350 349 349 350 352 353 353 353 352 350 351 352 354 353 354 353 348 345 344 345 345 344 342 341 344 345 346 348 347 347 348 345 345 345
311 313 316 321 326 332 335 342 347 348 347 348 349 351 352 352 353 351 349 349 351 353 353 352 350 346 343 343 344 343 342 341 343 344 344 346 348 349 347 347 346 344 345
308 309 311 314 317 322 325 328 334 341 344 346 347 349 350 351 350 350 348 348 349 350 350 349 346 344 343 342 342 341 340 340 343 345 341 344 346 348 347 346 344 344 343
306 305 307 309 310 314 317 320 324 329 337 341 343 343 344 345 345 347 348 348 348 348 348 346 344 342 342 341 341 339 337 338 346 346 341 341 344 347 347 346 344 343 342
303 303 303 305 307 308 312 314 316 321 324 332 340 341 340 339 343 344 344 346 346 347 347 345 342 341 340 339 338 337 336 337 345 346 345 343 343 347 347 346 344 343 342
300 301 300 301 303 304 307 309 311 314 317 324 328 335 340 345 347 347 345 343 345 344 345 344 341 339 338 337 337 336 335 343 344 345 346 340 342 346 346 346 344 342 342
297 298 298 299 300 301 302 305 306 308 312 315 323 325 333 342 344 344 343 338 342 340 342 342 340 338 337 343 342 337 342 342 343 344 345 337 342 346 346 345 344 342 342
296 296 297 297 299 299 299 302 302 305 307 309 315 317 320 330 344 343 344 346 348 344 348 345 346 345 344 343 342 342 341 342 343 343 341 335 341 345 346 345 343 342 342
294 295 296 296 297 298 299 298 300 302 304 306 309 311 313 321 328 339 341 342 342 343 343 343 343 346 345 343 343 342 342 341 340 342 342 333 337 344 347 345 344 342 342
293 294 295 296 296 296 297 297 298 300 302 304 306 308 310 312 321 324 329 340 341 342 342 341 340 340 343 342 342 341 340 341 340 340 343 332 333 340 345 347 345 343 341
293 293 294 295 296 296 296 297 297 299 300 302 304 306 308 312 311 314 322 325 338 341 340 340 339 339 338 342 341 340 339 339 339 339 341 342 330 334 339 343 345 343 341
292 293 293 295 296 295 296 296 297 298 299 299 302 305 306 308 310 312 313 320 325 338 339 339 339 339 336 337 340 339 339 339 338 338 339 341 339 327 332 337 341 342 342
292 292 293 294 294 295 296 296 297 297 298 299 301 302 304 307 309 310 313 316 324 323 331 338 336 335 334 333 335 338 338 338 337 338 338 338 340 340 331 331 335 338 339
291 291 291 293 293 294 295 296 297 297 298 298 299 300 303 305 307 307 309 312 317 319 319 330 336 334 332 332 332 338 338 336 337 336 336 338 340 340 340 331 329 331 334
291 291 291 292 293 294 294 295 296 296 297 297 298 299 301 303 304 304 307 310 312 315 320 322 330 335 333 332 330 332 337 336 336 336 337 338 339 340 341 340 339 336 328
291 290 291 291 293 292 292 290 291 291 294 295 296 297 299 301 303 303 306 309 311 313 318 320 323 330 331 333 329 328 331 335 335 335 337 338 338 338 340 340 340 336 335
289 290 290 290 291 290 290 291 291 292 293 294 296 297 299 300 302 302 305 307 309 312 313 320 323 321 321 330 326 325 321 326 330 334 334 336 338 338 337 339 339 338 338
289 289 289 290 290 290 290 290 290 291 291 291 292 294 297 300 302 303 303 305 308 310 310 311 317 320 320 322 329 325 321 320 326 332 333 333 335 337 337 338 338 338 339
288 289 289 289 289 289 289 288 288 287 286 290 291 293 295 299 301 303 304 305 305 306 307 311 314 318 325 325 328 330 327 327 321 322 328 332 334 334 336 336 336 338 338
289 288 289 289 289 289 288 288 288 288 289 289 290 291 293 295 298 301 303 304 306 308 308 308 313 317 325 328 322 319 322 324 322 323 320 325 329 333 335 336 335 336 337
288 288 289 288 288 288 288 288 288 287 287 287 288 288 289 291 293 295 297 298 301 303 306 310 314 318 319 328 327 323 321 322 321 321 321 324 325 328 332 334 334 336 337

GFSSE_sfc_thetae_150.txt.gz
Theta_e
351 355 352 352 351 350 350 351 352 354 355 356 355 355 355 355 355 356 356 357 356 357 355 353 350 350 351 351 352 353 353 353 353 354 354 352 352 352 351 352 351 349 352
351 354 349 351 352 351 350 350 351 352 354 355 355 354 354 354 354 356 356 357 356 356 355 352 350 349 349 349 351 352 352 352 351 352 353 353 351 351 351 350 350 349 351
348 346 350 349 351 351 351 351 351 351 352 354 354 355 354 354 355 355 356 356 357 356 353 352 351 349 349 349 350 351 350 350 350 351 352 348 347 350 350 349 348 350 351
331 336 338 341 348 351 351 351 352 352 350 351 353 354 355 355 355 355 355 354 356 356 354 352 351 350 349 349 349 349 349 349 349 350 348 347 346 349 350 348 348 348 349
328 330 328 333 337 341 347 350 351 351 350 350 350 352 354 354 354 355 353 352 354 354 353 352 352 350 349 348 348 347 347 347 347 346 347 348 346 347 349 348 346 347 347
324 325 321 325 329 333 337 341 345 349 350 349 350 351 352 353 353 354 351 351 353 354 353 353 354 351 347 346 346 346 345 344 342 346 346 347 348 347 348 349 347 345 345
318 320 319 318 321 324 328 331 334 339 343 348 349 350 350 351 351 352 350 350 351 353 354 354 353 348 345 344 345 345 343 342 344 346 345 347 348 349 348 349 346 344 344
315 316 317 317 317 318 320 321 324 328 333 339 346 348 349 349 347 350 349 349 349 350 351 351 350 346 344 343 344 343 342 341 343 345 345 345 348 348 348 348 345 344 343
313 314 314 315 314 315 316 316 317 320 323 330 335 341 343 342 344 346 346 348 348 349 349 349 346 344 343 342 342 341 339 341 346 344 344 344 346 347 348 347 345 344 343
311 311 311 312 313 313 316 314 314 316 318 321 328 329 333 340 342 343 344 343 347 347 348 347 344 342 341 340 340 339 338 339 345 343 345 345 345 346 347 347 346 345 343
308 308 308 308 309 310 311 312 314 315 316 320 323 326 334 347 350 349 344 342 342 343 345 345 343 341 339 339 338 337 337 343 342 343 343 341 344 347 347 348 346 344 343
305 306 306 307 307 308 307 311 312 313 315 317 320 323 325 330 340 345 343 340 340 341 340 342 342 340 338 345 343 338 343 341 342 342 343 339 342 346 347 348 345 343 343
304 305 305 306 307 307 306 307 309 310 312 314 317 319 320 321 330 337 348 347 350 343 348 345 347 348 346 344 342 344 342 342 341 341 341 338 341 345 347 347 345 344 343
303 303 304 305 306 306 306 306 307 308 310 311 313 316 317 317 318 326 333 341 346 347 347 348 348 348 346 345 344 344 344 342 340 340 341 335 338 345 347 347 344 343 343
302 303 303 305 305 305 306 306 306 307 308 309 311 314 315 314 317 321 321 324 330 346 346 343 343 344 346 344 345 344 343 343 341 340 341 333 334 340 346 348 346 343 342
302 302 303 303 304 305 305 306 306 307 307 308 309 311 313 313 314 315 317 319 325 332 345 346 342 341 341 345 342 343 342 342 342 342 340 342 331 335 340 345 347 345 343
301 301 302 302 304 304 304 304 305 306 306 306 307 310 310 311 313 315 315 316 318 324 330 334 344 343 339 340 342 341 342 343 341 340 340 339 339 329 333 339 341 344 344
300 300 301 301 302 303 303 304 304 305 305 306 306 307 308 309 311 312 313 314 318 319 325 327 328 340 340 337 337 342 341 341 342 341 339 339 340 341 332 333 336 340 340
299 299 300 301 301 301 302 303 303 304 304 304 305 306 307 307 308 308 306 309 315 315 318 322 325 324 336 338 334 337 344 340 340 339 338 338 339 341 341 331 331 332 335
299 300 300 300 300 300 301 301 302 302 302 303 303 304 304 304 303 303 304 305 310 314 315 316 319 325 323 334 334 334 340 343 340 339 338 337 338 340 342 342 339 337 329
299 298 299 298 299 298 298 297 297 296 298 300 301 301 301 302 302 302 302 304 306 311 314 316 318 321 324 326 330 330 333 342 341 340 339 338 337 338 343 341 342 341 336
297 297 298 297 298 297 296 296 295 295 296 297 298 300 300 299 300 301 302 303 304 305 307 313 315 317 319 323 324 327 325 326 331 338 339 339 340 338 339 342 341 341 340
296 296 296 296 297 296 294 295 295 296 296 295 295 295 296 297 298 300 301 303 304 305 304 306 313 312 313 322 324 321 318 315 323 330 333 336 339 340 340 340 342 341 341
296 297 297 296 296 295 294 292 291 290 290 291 292 293 295 297 296 296 298 299 301 303 306 307 307 311 314 314 322 325 326 329 319 317 330 333 337 337 340 339 341 341 340
296 296 296 296 296 294 293 293 291 290 290 290 290 290 293 294 293 293 295 296 297 300 301 303 305 308 313 314 316 324 328 328 327 321 317 325 332 336 338 340 340 341 340
295 295 296 294 294 294 293 292 290 288 288 288 288 288 289 290 291 292 293 295 298 300 302 304 306 308 309 315 318 324 324 321 320 319 315 320 326 332 337 339 341 341 340

GFSSE_sfc_thetae_153.txt.gz
Theta_e
349 352 352 352 351 351 351 351 352 355 355 355 355 355 355 355 356 356 356 357 356 356 354 351 348 350 350 350 352 350 352 353 354 354 352 352 352 352 352 352 352 348 353
339 348 344 352 351 351 352 352 352 353 355 354 354 355 355 355 355 356 356 357 356 356 355 353 349 348 349 349 351 350 350 352 352 353 354 352 351 351 351 351 349 348 351
336 341 341 343 351 351 352 352 352 352 353 354 354 353 354 355 355 356 356 357 356 355 355 353 350 348 348 348 349 350 350 351 351 352 353 347 348 351 350 349 348 350 349
335 334 334 336 341 345 348 351 352 352 351 351 353 353 353 354 354 355 355 355 356 355 354 352 351 349 348 348 348 349 350 350 350 351 348 349 346 351 350 348 348 350 349
334 330 326 329 333 337 340 342 345 349 351 351 351 352 353 354 354 355 355 354 356 355 355 353 351 351 350 348 348 349 348 349 349 348 346 347 347 348 350 348 347 348 347
330 328 321 322 325 329 331 334 336 340 343 349 350 350 351 352 352 352 353 353 354 354 354 353 353 353 349 347 347 347 346 346 345 345 346 347 346 349 349 350 349 347 346
323 324 322 320 320 322 324 325 327 330 335 340 346 349 350 351 352 351 350 351 352 353 354 354 354 352 347 345 346 345 344 343 344 344 342 344 347 351 349 349 347 346 345
320 321 321 321 319 319 319 319 320 323 326 332 336 340 343 345 346 349 349 348 349 350 351 351 351 350 346 344 344 344 343 341 342 343 342 341 347 350 348 348 346 345 344
318 318 319 319 319 321 321 317 317 319 320 322 328 330 332 337 343 345 347 348 348 348 349 349 349 347 345 343 343 342 340 341 344 342 340 340 348 350 348 349 347 345 344
316 316 316 317 317 318 318 319 320 320 321 322 326 328 326 335 340 343 344 345 346 347 347 347 347 345 343 342 340 340 339 340 344 341 341 342 347 348 348 349 347 345 344
314 314 315 314 315 316 315 316 320 321 323 323 323 327 326 335 340 348 345 342 344 344 344 344 343 343 340 339 339 339 338 343 341 340 339 341 347 348 348 349 347 345 344
310 311 312 313 314 314 313 315 317 317 318 319 321 321 322 324 326 329 339 339 340 341 341 341 341 340 340 344 342 338 342 342 340 339 339 341 346 347 348 349 346 345 344
309 310 311 312 313 313 313 313 314 314 316 317 319 320 321 321 323 323 328 341 349 344 346 343 343 344 345 344 341 343 343 342 340 338 338 339 344 347 348 349 347 345 344
308 309 310 311 312 312 312 312 313 313 313 314 314 318 318 318 319 321 321 325 333 346 346 347 346 348 348 345 343 343 344 340 340 339 339 337 340 346 348 348 347 345 344
307 308 309 310 310 311 312 312 312 312 312 313 314 315 316 315 317 318 319 321 322 327 339 345 345 346 346 347 344 343 342 343 341 339 340 334 336 342 347 349 347 344 344
306 307 308 308 309 310 310 311 310 311 312 312 312 313 314 314 314 315 317 318 320 321 324 335 334 337 343 346 345 344 342 341 341 343 340 340 332 336 342 347 348 346 344
306 307 307 307 309 309 309 309 310 310 310 310 311 312 312 312 312 313 314 315 317 321 325 325 332 329 337 341 343 345 342 341 340 342 342 340 338 330 334 341 343 345 345
305 305 306 306 307 307 307 308 308 308 309 309 309 310 311 311 311 310 310 312 314 316 318 320 323 328 327 333 338 342 344 342 339 341 342 342 340 342 332 334 338 341 341
305 305 305 306 306 306 306 307 307 308 307 307 307 308 309 308 309 307 305 307 310 310 313 316 318 324 326 328 330 338 341 343 341 339 338 342 343 341 341 332 331 333 336
305 305 305 305 305 304 305 305 305 305 305 305 305 305 306 305 305 303 302 303 305 306 309 314 318 318 320 325 325 327 337 342 343 343 338 337 340 341 342 343 338 336 329
304 303 303 303 303 303 301 300 300 300 301 302 303 304 304 303 301 300 301 303 304 303 305 309 309 314 316 322 326 327 329 337 337 338 342 336 337 339 339 342 342 340 335
302 302 302 302 302 301 300 299 299 299 300 301 302 301 301 300 299 298 299 299 300 301 304 305 306 307 313 320 320 321 320 325 333 334 336 339 337 336 335 338 341 343 341
301 301 301 301 301 300 299 299 299 300 299 298 297 297 297 298 298 297 297 297 298 299 300 303 306 306 304 311 320 319 317 317 323 331 334 335 335 337 338 335 341 342 341
300 301 301 301 300 299 299 297 295 294 292 293 294 294 294 295 295 294 295 295 295 296 298 301 303 306 308 306 313 317 324 325 321 320 330 334 335 334 335 336 337 340 342
299 300 301 300 299 299 298 297 294 293 292 292 292 291 292 292 293 292 293 293 294 296 298 300 302 303 304 306 310 314 316 323 326 318 318 322 328 331 334 334 336 338 339
300 299 299 299 297 297 296 296 294 291 291 289 289 289 289 291 291 292 291 291 292 294 295 297 300 302 306 307 308 312 315 317 320 319 318 322 323 326 332 333 334 336 339

GFSSE_sfc_thetae_156.txt.gz
Theta_e
342 345 348 353 353 353 353 353 354 355 356 354 355 355 355 355 355 355 356 356 356 356 353 351 351 351 350 351 352 352 352 353 354 353 353 352 352 352 352 353 351 348 350
340 341 341 349 352 353 353 353 353 354 356 355 353 354 355 355 355 355 356 355 355 354 353 351 349 348 349 349 352 352 352 352 352 353 353 353 351 351 350 351 349 348 350
335 336 335 341 345 348 350 352 353 353 354 355 355 353 354 354 355 355 355 356 355 355 354 352 350 349 348 351 351 351 351 351 350 351 352 347 346 351 350 350 348 349 349
331 329 329 334 338 341 343 344 346 350 351 353 354 354 353 353 354 355 355 355 355 355 354 353 351 351 351 350 350 350 349 350 349 349 347 347 346 351 349 349 349 349 348
328 323 323 328 331 334 335 336 339 341 344 350 351 352 353 354 354 353 354 353 354 354 354 354 353 353 351 348 347 348 348 348 348 347 343 344 343 347 350 349 348 349 347
326 320 320 323 325 327 329 330 332 334 338 342 345 349 350 351 352 352 353 352 354 354 353 353 354 353 350 346 346 346 346 345 346 343 341 346 344 349 349 348 348 346 346
322 323 319 324 322 322 323 325 325 327 330 334 339 341 343 346 348 350 350 351 351 352 353 353 353 352 349 346 345 345 344 343 343 340 340 343 345 350 350 349 347 347 345
320 322 321 324 325 322 321 320 321 322 323 325 329 331 332 337 342 346 348 348 348 349 349 350 350 349 349 345 344 343 342 341 341 338 339 339 347 350 351 349 346 345 345
319 320 322 320 320 324 323 321 322 322 324 326 328 330 329 333 337 343 345 346 347 347 347 347 347 347 347 345 342 341 339 341 341 340 341 342 348 350 351 349 347 345 344
318 318 318 319 318 320 320 322 324 323 324 326 327 328 327 332 336 340 342 344 345 346 346 346 345 345 345 343 341 339 338 339 339 340 339 339 348 351 351 349 347 346 344
315 316 317 315 315 317 317 317 323 324 325 325 324 325 323 321 323 326 328 335 340 343 343 343 343 342 342 340 339 338 338 339 339 339 338 340 347 351 351 349 347 345 344
311 312 312 313 313 314 313 316 318 317 318 318 321 318 320 321 320 324 327 330 338 340 340 341 341 340 340 343 341 338 338 339 338 337 337 340 347 350 351 349 347 345 344
310 311 310 313 314 313 312 314 313 314 315 316 316 317 318 318 320 319 319 321 327 335 341 342 341 340 340 341 341 339 338 339 338 337 337 339 345 350 350 349 347 346 344
308 309 309 310 311 313 312 312 312 312 313 312 312 316 314 313 314 315 316 317 318 321 324 337 341 340 340 340 341 339 338 339 339 337 336 337 342 348 351 350 348 346 344
307 309 309 309 310 310 311 311 312 312 312 312 312 314 312 312 311 312 313 315 316 318 318 319 334 338 338 339 339 340 339 337 338 338 336 334 337 343 348 350 348 347 345
307 307 309 308 310 310 309 310 310 312 311 311 311 313 313 312 311 310 310 312 313 315 317 317 317 323 332 333 338 339 338 339 337 336 334 335 333 338 343 348 349 348 346
306 307 308 308 309 308 308 308 309 309 309 308 310 311 311 311 309 308 307 308 310 311 311 312 314 318 324 329 332 337 338 338 338 338 336 336 333 331 336 342 345 346 345
305 305 307 307 307 306 307 307 307 308 307 307 307 307 310 307 306 306 304 304 305 305 305 307 311 313 315 322 327 330 335 337 337 338 338 336 336 336 332 336 340 342 342
304 305 305 306 305 305 306 305 306 307 306 305 305 305 305 305 306 301 301 302 302 302 303 305 307 310 312 313 319 326 330 334 336 337 337 336 336 337 336 331 333 335 337
304 305 304 304 304 304 303 302 302 303 303 303 303 303 303 302 302 299 298 299 302 302 301 302 303 306 306 309 314 315 323 328 334 334 335 336 336 337 337 336 334 334 331
304 303 303 302 302 301 300 298 298 298 299 300 301 300 300 298 299 297 297 297 298 298 299 301 302 302 303 307 307 313 315 322 325 332 334 334 335 335 335 336 334 334 333
302 302 302 301 301 299 298 298 298 298 298 299 297 297 296 296 296 295 295 294 295 295 297 298 301 301 302 305 305 307 308 313 321 327 331 333 333 335 335 333 335 334 334
301 301 300 300 299 299 298 298 296 297 296 294 294 293 293 294 295 294 293 293 292 293 293 295 297 298 298 303 305 305 307 305 313 324 327 330 330 332 334 334 335 336 335
300 301 300 300 298 297 298 296 294 292 290 291 291 291 292 293 292 293 293 292 291 292 293 295 298 298 300 299 303 308 308 310 307 310 322 327 331 331 330 331 334 336 337
300 300 300 299 297 297 297 295 293 291 292 292 291 290 290 291 291 291 291 290 289 291 292 292 294 296 298 300 301 302 304 308 311 308 309 316 324 327 330 326 328 333 334
300 299 299 298 295 296 295 294 292 291 290 289 289 288 288 289 289 290 289 289 289 289 289 291 293 294 296 299 301 304 302 302 305 309 310 313 316 321 327 326 326 331 334